[[{"header":{"parameterUnit":"m.s-1","parameterCategory":1,"la1":30.2991,"la2":30.254,"lo1":-89.0895,"lo2":-89.0444,"dy":0.0017,"dx":0.0017,"nx":28,"ny":28,"refTime":"2025-07-16T03:00:00:Z","depth":0,"parameterNumber":2,"parameterNumberName":"U-component_of_WINDS"},"data":[0,0,0,0,0,0,0,0,0,0,0,0,0,0,0,0,0,0,0,0,0,0,0,0,0,0,0,0,0,0,0,0,0,0,0,0,0,0,0,0,0,0,0,0,0,0,0,0,0,0,0,0,0,0,0,0,0,0,3.1439,3.1437,0,3.1192,3.1189,3.1186,3.0956,3.0953,3.095,3.0948,3.0687,3.0683,3.0678,0,0,0,0,0,0,0,0,0,0,0,0,0,3.1707,3.1703,3.1439,3.1436,3.1433,3.1192,3.1189,3.1185,3.0956,3.0953,3.095,3.0946,3.0688,3.0683,3.0678,0,0,0,0,0,0,0,0,0,0,0,0,0,3.1538,3.1702,3.144,3.129,3.1274,3.1193,3.1188,3.1184,3.0957,3.0953,3.0949,3.0945,3.069,3.0684,3.0677,3.0722,0,0,3.0657,3.0655,0,0,0,0,0,0,0,0,3.1548,3.1529,3.1315,3.13,3.1282,3.11,3.1187,3.1029,3.0958,3.1077,3.0948,3.0943,3.0827,3.0809,3.0772,3.0709,3.0698,3.0657,3.0653,3.065,3.0648,0,0,0,0,0,0,0,3.156,3.1538,3.1341,3.1312,3.1292,3.1233,3.1204,3.1156,3.0979,3.1067,3.1049,3.1024,3.0817,3.0779,3.0764,3.0694,3.0657,3.0651,3.0647,3.0645,3.0653,3.0657,0,0,0,0,0,0,3.1596,3.1549,3.1349,3.1334,3.1408,3.1232,3.12,3.1163,3.0979,3.0947,3.1027,3.1014,3.0792,3.0772,3.0754,3.0792,3.065,3.0644,3.064,3.0649,3.0654,3.0659,0,0,0,0,0,0,3.1602,3.158,3.1359,3.1437,3.1404,3.1232,3.1192,3.116,3.1121,3.0949,3.0916,3.1021,3.0788,3.0763,3.0731,3.078,3.0641,3.0635,3.0644,3.0651,3.0656,3.087,0,0,0,0,0,0,3.1611,3.1584,3.1601,3.1439,3.1401,3.1343,3.1195,3.1159,3.1112,3.1091,3.0934,3.0904,3.0783,3.0742,3.0725,3.0768,3.063,3.0639,3.0647,3.0654,3.0858,3.0883,3.0904,0,0,0,0,0,3.1622,3.167,3.1603,3.158,3.1419,3.1347,3.1324,3.1186,3.1117,3.113,3.102,3.0909,3.0778,3.0741,3.072,3.0762,3.0635,3.0645,3.0654,3.0847,3.0878,3.0904,0,0,0,0,0,0,3.1839,3.1646,3.1569,3.1567,3.1476,3.1308,3.1322,3.1223,3.1147,3.1131,3.096,3.0926,3.0913,3.0834,3.0796,3.0794,3.0691,3.0697,3.0846,3.0873,3.0896,3.0914,3.0625,0,0,0,0,0,3.1888,3.1848,3.1679,3.1694,3.1652,3.1496,3.1459,3.136,3.1257,3.1217,3.1103,3.1006,3.0942,3.0903,3.0835,3.0846,3.0807,3.0864,3.0888,3.0907,3.0913,3.091,3.0933,3.0689,3.0689,3.0689,0,0,3.1986,3.1875,3.186,3.1735,3.1652,3.1612,3.1464,3.1428,3.1396,3.121,3.1173,3.1088,3.0967,3.0956,3.0946,3.089,3.0972,3.0919,3.0936,3.0931,3.0922,3.0946,3.0966,3.0695,3.0694,3.0693,0,0,3.2144,3.2058,3.2059,3.198,3.1857,3.1753,3.1754,3.1601,3.1538,3.1499,3.1358,3.1316,3.1211,3.113,3.1076,3.1204,3.1098,3.1187,3.1307,3.1306,3.1325,3.1341,3.1385,3.1403,3.1194,3.1194,3.1195,0,3.228,3.2217,3.2071,3.2044,3.1992,3.1825,3.1824,3.1753,3.1614,3.1581,3.1521,3.1385,3.1292,3.1259,3.1291,3.1253,3.1246,3.1203,3.1335,3.1349,3.1362,3.1401,3.1419,3.1206,3.1204,3.1203,3.1202,0,3.239,3.2348,3.2363,3.2236,3.2186,3.2172,3.2022,3.1989,3.1895,3.1797,3.1758,3.1641,3.1546,3.1531,3.1438,3.1485,3.1453,3.1367,3.126,3.1399,3.1433,3.1447,3.1222,3.1218,3.1214,3.1212,0,0,3.2676,3.247,3.2478,3.2417,3.227,3.2233,3.2211,3.212,3.2094,3.2004,3.1979,3.1894,3.1813,3.1751,3.1648,3.1648,3.1754,3.156,3.1554,3.1598,3.1795,3.186,3.188,3.1684,3.1687,3.1689,3.1804,0,3.2808,3.2761,3.2629,3.2621,3.2579,3.242,3.24,3.2306,3.2214,3.2163,3.2059,3.2001,3.19,3.1861,3.1854,3.1744,3.1791,3.1733,3.1656,3.1655,3.1689,3.1898,3.1966,3.2081,3.1817,3.1819,3.1821,0,3.2955,3.2878,3.2866,3.272,3.2697,3.2683,3.2588,3.2542,3.2432,3.2364,3.2297,3.2183,3.2147,3.2051,3.1998,3.1962,3.1923,3.1864,3.1864,3.1849,3.1745,3.1886,3.2114,3.2131,3.1841,3.1839,3.1838,0,3.3163,3.3056,3.3034,3.2987,3.2817,3.281,3.2738,3.2624,3.2578,3.2495,3.2462,3.2376,3.2328,3.2262,3.2127,3.207,3.2089,3.1981,3.2029,3.2032,3.2038,3.2039,3.226,3.2018,3.2018,3.2017,3.2017,0,3.3323,3.3321,3.3125,3.3112,3.3105,3.2953,3.2949,3.2862,3.2762,3.2727,3.2584,3.2553,3.2377,3.2326,3.2219,3.2191,3.217,3.2113,3.2084,3.2124,3.2131,3.2094,3.2081,3.2022,3.2021,3.202,3.2019,0,3.3553,3.3422,3.3388,3.323,3.319,3.3192,3.3055,3.3035,3.2935,3.2892,3.2873,3.2715,3.2646,3.2506,3.2398,3.2326,3.2322,3.2272,3.236,3.2341,3.2396,3.2392,3.2599,3.2617,3.2367,3.237,3.2372,0,3.3663,3.3658,3.35,3.3468,3.3403,3.3352,3.3304,3.3154,3.311,3.2984,3.2978,3.29,3.2828,3.2726,3.26,3.2516,3.2462,3.254,3.2448,3.2488,3.2459,3.2461,3.2458,3.256,3.2564,3.2567,3.2569,0,3.387,3.3805,3.3744,3.3659,3.3607,3.3533,3.345,3.3431,3.3261,3.3218,3.3148,3.3094,3.2985,3.2907,3.2805,3.2727,3.2619,3.26,3.2605,3.2645,3.2695,3.2666,3.2413,3.2595,3.2592,3.259,3.2589,3.2588,3.404,3.4028,3.3916,3.3851,3.3774,3.3701,3.3674,3.3571,3.3511,3.3412,3.3327,3.3264,3.3151,3.3003,3.2933,3.2879,3.2826,3.2836,3.2837,3.2841,3.2857,3.2707,3.286,3.2859,3.2858,3.2857,3.2857,0,3.4239,3.4159,3.4101,3.3991,3.394,3.3847,3.375,3.3713,3.366,3.3566,3.3499,3.3417,3.3341,3.321,3.3122,3.3104,3.3052,3.3086,3.3084,3.3067,3.2911,3.2913,3.3129,3.3129,3.3129,3.3129,3.3129,3.3129,3.4336,3.431,3.4232,3.4165,3.4084,3.4023,3.3976,3.3906,3.383,3.3746,3.3683,3.3599,3.3488,3.3391,3.3316,3.3279,3.3252,3.3301,3.3248,3.3104,3.3078,3.3054,3.3055,3.3297,3.3298,3.3408,3.3409,3.341]},{"header":{"parameterUnit":"m.s-1","parameterCategory":1,"la1":30.2991,"la2":30.254,"lo1":-89.0895,"lo2":-89.0444,"dy":0.0017,"dx":0.0017,"nx":28,"ny":28,"refTime":"2025-07-16T03:00:00:Z","depth":0,"parameterNumber":3,"parameterNumberName":"V-component_of_WINDS"},"data":[0,0,0,0,0,0,0,0,0,0,0,0,0,0,0,0,0,0,0,0,0,0,0,0,0,0,0,0,0,0,0,0,0,0,0,0,0,0,0,0,0,0,0,0,0,0,0,0,0,0,0,0,0,0,0,0,0,0,-0.2228,-0.2227,0,-0.2195,-0.2195,-0.2194,-0.2159,-0.2158,-0.2158,-0.2157,-0.2127,-0.2127,-0.2126,0,0,0,0,0,0,0,0,0,0,0,0,0,-0.2262,-0.2261,-0.2228,-0.2227,-0.2227,-0.2195,-0.2195,-0.2194,-0.2159,-0.2158,-0.2158,-0.2157,-0.2127,-0.2127,-0.2126,0,0,0,0,0,0,0,0,0,0,0,0,0,-0.224,-0.2261,-0.2228,-0.2205,-0.2203,-0.2195,-0.2195,-0.2194,-0.2159,-0.2158,-0.2158,-0.2157,-0.2127,-0.2127,-0.2126,-0.2139,0,0,-0.2125,-0.2125,0,0,0,0,0,0,0,0,-0.2241,-0.2239,-0.2209,-0.2207,-0.2204,-0.218,-0.2195,-0.2176,-0.2159,-0.2176,-0.2157,-0.2156,-0.2146,-0.2144,-0.2139,-0.2137,-0.2136,-0.2125,-0.2125,-0.2124,-0.2124,0,0,0,0,0,0,0,-0.2243,-0.224,-0.2215,-0.2209,-0.2206,-0.2198,-0.2194,-0.2192,-0.2166,-0.2174,-0.2172,-0.2168,-0.2144,-0.214,-0.2138,-0.2136,-0.2125,-0.2124,-0.2124,-0.2124,-0.2141,-0.2142,0,0,0,0,0,0,-0.2247,-0.2241,-0.2216,-0.2214,-0.2221,-0.2198,-0.2193,-0.2189,-0.2166,-0.2161,-0.2169,-0.2167,-0.2141,-0.2139,-0.2137,-0.2149,-0.2124,-0.2124,-0.2124,-0.2141,-0.2141,-0.2142,0,0,0,0,0,0,-0.2248,-0.2245,-0.2217,-0.2227,-0.2223,-0.2198,-0.2193,-0.2189,-0.2184,-0.2161,-0.2157,-0.2169,-0.214,-0.2138,-0.2138,-0.2148,-0.2124,-0.2123,-0.214,-0.2141,-0.2142,-0.2174,0,0,0,0,0,0,-0.2249,-0.2246,-0.225,-0.2227,-0.2222,-0.2218,-0.2194,-0.2188,-0.2183,-0.218,-0.216,-0.2156,-0.214,-0.2139,-0.2138,-0.2147,-0.2123,-0.2139,-0.214,-0.2142,-0.2172,-0.2176,-0.218,0,0,0,0,0,-0.2251,-0.2261,-0.225,-0.2247,-0.2227,-0.2219,-0.2216,-0.2196,-0.2184,-0.2188,-0.2173,-0.2157,-0.2147,-0.2139,-0.2138,-0.2147,-0.2138,-0.214,-0.2141,-0.2171,-0.2176,-0.218,0,0,0,0,0,0,-0.2287,-0.2258,-0.2245,-0.2249,-0.2237,-0.2213,-0.2218,-0.2202,-0.2194,-0.2191,-0.2167,-0.2163,-0.2166,-0.2156,-0.2149,-0.2157,-0.214,-0.2142,-0.2163,-0.2167,-0.2171,-0.2174,-0.2122,0,0,0,0,0,-0.2296,-0.2291,-0.2266,-0.2272,-0.2266,-0.2243,-0.2239,-0.2224,-0.221,-0.2205,-0.2191,-0.2179,-0.2173,-0.217,-0.2163,-0.2171,-0.2166,-0.2176,-0.218,-0.2183,-0.2185,-0.2187,-0.2191,-0.2148,-0.2148,-0.2148,0,0,-0.2314,-0.2297,-0.2296,-0.2279,-0.2267,-0.2263,-0.2239,-0.2236,-0.2233,-0.2205,-0.2204,-0.2193,-0.2178,-0.2182,-0.2183,-0.2174,-0.2195,-0.2185,-0.2188,-0.2188,-0.2189,-0.2193,-0.2197,-0.2149,-0.2149,-0.2149,0,0,-0.2343,-0.233,-0.2333,-0.2322,-0.2304,-0.2288,-0.2289,-0.2267,-0.2258,-0.2257,-0.2235,-0.2232,-0.2222,-0.2212,-0.2206,-0.2231,-0.2215,-0.2229,-0.225,-0.2252,-0.2255,-0.2258,-0.2267,-0.227,-0.2231,-0.2231,-0.2231,0,-0.2368,-0.236,-0.2337,-0.2335,-0.2328,-0.2301,-0.2303,-0.2294,-0.2276,-0.2272,-0.2262,-0.2248,-0.2237,-0.2237,-0.2243,-0.2239,-0.2239,-0.2232,-0.2257,-0.2259,-0.2262,-0.2269,-0.2273,-0.2233,-0.2233,-0.2233,-0.2232,0,-0.2391,-0.2386,-0.239,-0.2371,-0.2365,-0.2365,-0.2342,-0.2339,-0.2324,-0.231,-0.2308,-0.2293,-0.2282,-0.2281,-0.2268,-0.228,-0.2274,-0.2261,-0.2244,-0.2268,-0.2275,-0.2277,-0.2235,-0.2235,-0.2234,-0.2234,0,0,-0.2444,-0.2411,-0.2413,-0.2403,-0.2381,-0.2377,-0.2376,-0.2364,-0.2362,-0.235,-0.2348,-0.234,-0.2327,-0.232,-0.2305,-0.2307,-0.2327,-0.2293,-0.2293,-0.23,-0.2338,-0.2348,-0.2352,-0.2316,-0.2317,-0.2317,-0.2339,0,-0.247,-0.2465,-0.2443,-0.2445,-0.244,-0.2414,-0.2413,-0.24,-0.2386,-0.238,-0.2365,-0.2359,-0.2343,-0.2338,-0.2339,-0.2324,-0.2334,-0.2322,-0.2315,-0.2315,-0.2319,-0.2356,-0.2367,-0.2388,-0.2342,-0.2342,-0.2343,0,-0.25,-0.2488,-0.2489,-0.2465,-0.2462,-0.2462,-0.2448,-0.2443,-0.2427,-0.2417,-0.2408,-0.2391,-0.2389,-0.2372,-0.2369,-0.2361,-0.2357,-0.2349,-0.235,-0.2348,-0.233,-0.2355,-0.2395,-0.2398,-0.2347,-0.2346,-0.2346,0,-0.2538,-0.2522,-0.252,-0.2513,-0.2486,-0.2486,-0.2475,-0.2458,-0.2452,-0.2441,-0.2436,-0.2426,-0.242,-0.2412,-0.2392,-0.2382,-0.2391,-0.2373,-0.2383,-0.2383,-0.2386,-0.2386,-0.2425,-0.2384,-0.2384,-0.2383,-0.2383,0,-0.2569,-0.2571,-0.2537,-0.2536,-0.2536,-0.2511,-0.2513,-0.25,-0.2485,-0.2481,-0.2458,-0.2455,-0.2429,-0.2423,-0.2408,-0.2407,-0.2405,-0.2397,-0.2393,-0.2399,-0.24,-0.2396,-0.2394,-0.2384,-0.2384,-0.2384,-0.2384,0,-0.2612,-0.2589,-0.2585,-0.2559,-0.2552,-0.2554,-0.2532,-0.253,-0.2514,-0.251,-0.2507,-0.2483,-0.2475,-0.2454,-0.2442,-0.2431,-0.2435,-0.2427,-0.2439,-0.2437,-0.2447,-0.2446,-0.2485,-0.2489,-0.2445,-0.2446,-0.2446,0,-0.2634,-0.2634,-0.2607,-0.2602,-0.2591,-0.2584,-0.2576,-0.2551,-0.2545,-0.2526,-0.2527,-0.2516,-0.2507,-0.2495,-0.2477,-0.2467,-0.2459,-0.2473,-0.2457,-0.2463,-0.2459,-0.2459,-0.2459,-0.2477,-0.2477,-0.2478,-0.2478,0,-0.2674,-0.2662,-0.2652,-0.2638,-0.2629,-0.2617,-0.2604,-0.2602,-0.2574,-0.2568,-0.2558,-0.2551,-0.2536,-0.2527,-0.2513,-0.2503,-0.2486,-0.2483,-0.2485,-0.2491,-0.2498,-0.2494,-0.2449,-0.2483,-0.2482,-0.2482,-0.2482,-0.2481,-0.2707,-0.2705,-0.2685,-0.2674,-0.2661,-0.2649,-0.2645,-0.2628,-0.2619,-0.2605,-0.2591,-0.2583,-0.2566,-0.2546,-0.2536,-0.253,-0.2521,-0.2524,-0.2525,-0.2526,-0.2528,-0.2499,-0.2528,-0.2527,-0.2527,-0.2527,-0.2527,0,-0.2745,-0.2731,-0.2721,-0.2702,-0.2693,-0.2677,-0.2661,-0.2655,-0.2648,-0.2633,-0.2623,-0.2612,-0.2602,-0.2582,-0.257,-0.2569,-0.2561,-0.2567,-0.2567,-0.2565,-0.2537,-0.2536,-0.2573,-0.2573,-0.2573,-0.2573,-0.2573,-0.2573,-0.2765,-0.2761,-0.2746,-0.2735,-0.2721,-0.2711,-0.2704,-0.2692,-0.268,-0.2668,-0.2659,-0.2645,-0.2628,-0.2615,-0.2605,-0.2599,-0.2596,-0.2605,-0.2597,-0.2571,-0.2567,-0.2563,-0.2562,-0.2604,-0.2604,-0.2625,-0.2625,-0.2625]}]]